Regional Weather Roundup
Issued by NWS

Home | Current Version | Previous Version | Graphics & Text | Print | Product List | Glossary On
Versions: 1 2 3 4 5 6 7 8 9 10 11 12 13 14 15 16 17 18 19 20 21 22 23 24 25 26 27 28 29 30 31 32 33 34 35 36 37 38 39 40 41 42 43 44 45 46 47 48 49 50
000
ASUS43 KDTX 030710
RWRMI
MICHIGAN HOURLY REGIONAL WEATHER ROUNDUP
NATIONAL WEATHER SERVICE DETROIT/PONTIAC MI
200 AM EST TUE MAR 03 2015

NOTE: "FAIR" INDICATES FEW OR NO CLOUDS BELOW 12,000 FEET WITH NO
SIGNIFICANT WEATHER AND/OR OBSTRUCTION TO VISIBILITY.

MIZ047>049-052>055-059>063-066>070-074>076-081>083-030800-
SOUTHEAST LOWER MICHIGAN

CITY           SKY/WX    TMP DP  RH WIND       PRES   REMARKS
ADRIAN         CLOUDY    22  15  75 CALM      30.31F
ALMA           CLOUDY    22  16  78 CALM      30.27F
ANN ARBOR      CLOUDY    21  15  78 S3        30.30F
BAD AXE        MOCLDY    17  11  75 S7        30.30S
DETROIT CITY   CLOUDY    25  15  66 SW5       30.33S
DETROIT        CLOUDY    23  16  74 S6        30.34S
FLINT          CLOUDY    24  12  60 S6        30.29F
GROSSE ILE     CLOUDY    23  18  80 SW3       30.33R
HILLSDALE      CLOUDY    23  14  70 CALM      30.26F
HOWELL         CLOUDY    24  14  67 S6        30.27F

CITY           SKY/WX    TMP DP  RH WIND       PRES   REMARKS
JACKSON        CLOUDY    24  14  65 S5        30.27F
LAMBERTVILLE   CLOUDY    25  16  68 CALM      30.32F
LANSING        CLOUDY    25  14  63 S6        30.27F
LAPEER         NOT AVBL
MASON          CLOUDY    24  15  69 S5        30.27F
MONROE         CLOUDY    23  16  74 CALM      30.32S
MT. CLEMENS    CLOUDY    16  12  83 NE1       30.30F
PONTIAC        CLOUDY    23  13  65 S5        30.28F
PORT HOPE        N/A     19   8  62 SW6       30.28F
PORT HURON     MOCLDY    18  14  86 CALM      30.33S
TRI CITIES     CLOUDY    23  12  62 S3        30.29F
YPSILANTI      CLOUDY    25  15  66 SW7       30.32F
$$
MIZ043>046-050>051-056>058-064>065-071>073-077>080-030800-
SOUTHWEST LOWER MICHIGAN

CITY           SKY/WX    TMP DP  RH WIND       PRES   REMARKS
BATTLE CREEK   CLOUDY    25  15  66 S8        30.26F
BENTON HARBOR  CLOUDY    25  15  66 SE7       30.24F
BIG RAPIDS     CLOUDY    21  13  71 CALM      30.22F
COLDWATER      CLOUDY    24  15  69 CALM      30.27S
HOLLAND        CLOUDY    25  15  66 SE6       30.25F
GRAND RAPIDS   CLOUDY    24  15  68 S6        30.25F
KALAMAZOO      CLOUDY    25  14  63 S5        30.26F
MARSHALL       CLOUDY    23  15  70 S5        30.26F
MUSKEGON       LGT SNOW  24  16  71 SE6       30.24F
$$
MIZ016>042-030800-
NORTHERN LOWER MICHIGAN

CITY           SKY/WX    TMP DP  RH WIND       PRES   REMARKS
ALPENA         PTCLDY    -3 -10  72 CALM      30.26F
BEAVER ISLAND  MOCLDY    15   7  72 SE3       30.20F
BELLAIRE       MOCLDY     2  -2  83 CALM      30.24F
CADILLAC       CLOUDY    17  10  73 S6        30.18F
CHARLEVOIX     MOCLDY     5   1  84 CALM      30.25F
FRANKFORT      CLOUDY    21  15  77 SE6       30.21F
GAYLORD        PTCLDY     0  -3  87 CALM      30.18F
GRAYLING       PTCLDY    -1  -6  76 CALM      30.22F
HARBOR SPRINGS MOCLDY     2  -1  85 NE5       30.22F
HOUGHTON LAKE  MOCLDY     9   2  73 CALM      30.22F
MANISTEE       CLOUDY    19  10  68 SE5       30.22F
OSCODA         PTCLDY     4  -2  75 CALM      30.27F
PELLSTON       MOCLDY    -9 -13  83 CALM      30.24F
TRAVERSE CITY  MOCLDY    15   7  70 SE3       30.21F
$$
MIZ007>008-015-030800-
EASTERN UPPER MICHIGAN

CITY           SKY/WX    TMP DP  RH WIND       PRES   REMARKS
KINROSS        MOCLDY     1   0  92 SE6       30.21F
MACKINAC ISLAN MOCLDY    12   4  71 S10       30.22S WCI  -1
NEWBERRY       PTCLDY    11   8  87 S10       30.17F WCI  -3
S. S. MARIE    PTCLDY     1  -4  79 NE7       30.22F
$$
MIZ004>006-011>014-085-030800-
CENTRAL UPPER MICHIGAN

CITY           SKY/WX    TMP DP  RH WIND       PRES   REMARKS
MANISTIQUE     CLOUDY    21  18  88 S9        30.17F
ESCANABA       MOCLDY    19  16  86 S8        30.17F
MENOMINEE      CLOUDY    21  14  73 S8        30.14F
SAWYER-GWINN   MOCLDY    12   6  76 S10       30.08F WCI  -1
$$
MIZ001>003-009>011-084-030800-
WESTERN UPPER MICHIGAN

CITY           SKY/WX    TMP DP  RH WIND       PRES   REMARKS
IRON MOUNTAIN  MOCLDY    18   6  59 SE6       30.07F
HOUGHTON       PTCLDY    11   1  64 CALM      30.01F
COPPER HARBOR    N/A     19   4  51 W8        30.04F
IRONWOOD       CLOUDY    21   7  53 S12G18    29.97F
$$

ABBREVIATIONS USED IN REMARKS
   TC - TEMPERATURE IN CELSIUS
  WCI - WIND CHILL INDEX
   HX - HEAT INDEX
  VSB - VISIBILITY




USA.gov is the U.S. government's official web portal to all federal, state and local government web resources and services.